Terug naar catalogus

CZ-4B DEB

ActiefPO
NORAD 38310·DEBRIS·🇨🇳 China

Gelanceerd Dec 22, 2011 vanaf Taiyuan Satellite Launch Center

Loading…

Volgende Passages (komende 24 uur)

TLE

VersSource: Space-Track

Epoch: Sep 14, 2026, 08:37 UTC

1 38310U 11079D   26257.35950932  .00002338  00000-0  43905-3 0  9991
2 38310  98.7109 212.1156 0097363 273.5423 239.2601 14.62772653775514

Volg CZ-4B DEB in realtime met AllMySat

Download on the App Store